Weather reports worldwide

Advertisment
Santon Downham, United Kingdom (99118): temperature & dewpoint: 27.05.2020 21:00:00 - 02.06.2020 21:00:00 (BST)Santon Downham, United Kingdom (99118): temperature -20cm & temperature -100cm: 27.05.2020 21:00:00 - 02.06.2020 21:00:00 (BST)Santon Downham, United Kingdom (99118): precipitation: 27.05.2020 21:00:00 - 02.06.2020 21:00:00 (BST)
Date & Time tt [°C] td [°C] tt -20cm [°C] tt -100cm [°C] rr [mm]
02.06.2020 21:00:00 15,0 6,8 - - 0,0
02.06.2020 20:00:00 18,9 7,1 - - 0,0
02.06.2020 19:00:00 21,1 6,4 - - 0,0
02.06.2020 18:00:00 22,2 6,1 - - 0,0
02.06.2020 17:00:00 22,6 8,2 - - 0,0
02.06.2020 16:00:00 21,9 8,6 - - 0,0
02.06.2020 15:00:00 22,4 8,9 - - 0,0
02.06.2020 14:00:00 22,3 8,6 - - 0,0
02.06.2020 13:00:00 23,0 9,1 - - 0,0
02.06.2020 12:00:00 21,7 8,8 - - 0,0
02.06.2020 11:00:00 20,5 9,7 - - 0,0
02.06.2020 10:00:00 - - - - -
02.06.2020 09:00:00 - - - - -
02.06.2020 08:00:00 12,6 12,4 - - 0,0
02.06.2020 07:00:00 8,8 8,6 - - 0,0
02.06.2020 06:00:00 5,3 5,1 - - 0,0
02.06.2020 05:00:00 4,5 4,1 - - 0,0
02.06.2020 04:00:00 5,0 4,5 - - 0,0
02.06.2020 03:00:00 5,5 4,9 - - 0,0
02.06.2020 02:00:00 6,5 5,8 - - 0,0
02.06.2020 01:00:00 7,6 6,6 - - 0,0
02.06.2020 00:00:00 9,6 8,3 - - 0,0
01.06.2020 23:00:00 11,6 9,0 - - 0,0
01.06.2020 22:00:00 13,2 8,3 - - 0,0
01.06.2020 21:00:00 15,8 7,5 - - 0,0
01.06.2020 20:00:00 18,7 8,1 - - 0,0
01.06.2020 19:00:00 20,6 8,1 - - 0,0
01.06.2020 18:00:00 22,2 8,9 - - 0,0
01.06.2020 17:00:00 23,3 8,9 - - 0,0
01.06.2020 16:00:00 23,5 9,1 - - 0,0
01.06.2020 15:00:00 23,4 8,5 - - 0,0
01.06.2020 14:00:00 23,6 7,5 - - 0,0
01.06.2020 13:00:00 24,0 9,6 - - 0,0
01.06.2020 12:00:00 23,8 10,1 - - 0,0
01.06.2020 11:00:00 22,9 9,2 - - 0,0
01.06.2020 10:00:00 20,4 11,7 15,7 13,9 0,0
01.06.2020 09:00:00 18,1 11,5 - - 0,0
01.06.2020 08:00:00 15,2 12,6 - - 0,0
01.06.2020 07:00:00 11,4 11,2 - - 0,0
01.06.2020 06:00:00 6,5 6,2 - - 0,0
01.06.2020 05:00:00 5,7 5,2 - - 0,0
01.06.2020 04:00:00 6,1 5,5 - - 0,0
01.06.2020 03:00:00 6,3 5,5 - - 0,0
01.06.2020 02:00:00 7,3 6,6 - - 0,0
01.06.2020 01:00:00 7,6 6,4 - - 0,0
01.06.2020 00:00:00 8,8 6,4 - - 0,0
31.05.2020 23:00:00 9,5 5,4 - - 0,0
31.05.2020 22:00:00 12,4 5,2 - - 0,0
31.05.2020 21:00:00 15,1 6,1 - - 0,0
31.05.2020 20:00:00 17,6 6,2 - - 0,0
31.05.2020 19:00:00 19,4 5,3 - - 0,0
31.05.2020 18:00:00 20,7 5,6 - - 0,0
31.05.2020 17:00:00 21,5 4,6 - - 0,0
31.05.2020 16:00:00 22,8 6,2 - - 0,0
31.05.2020 15:00:00 22,9 5,0 - - 0,0
31.05.2020 14:00:00 22,7 6,3 - - 0,0
31.05.2020 13:00:00 22,7 5,5 - - 0,0
31.05.2020 12:00:00 23,1 7,6 - - 0,0
31.05.2020 11:00:00 22,8 7,3 - - 0,0
31.05.2020 10:00:00 21,9 7,6 15,4 13,7 0,0
31.05.2020 09:00:00 19,9 10,3 - - 0,0
31.05.2020 08:00:00 16,1 12,4 - - 0,0
31.05.2020 07:00:00 11,1 11,0 - - 0,0
31.05.2020 06:00:00 8,1 7,7 - - 0,0
31.05.2020 05:00:00 7,5 7,1 - - 0,0
31.05.2020 04:00:00 7,6 7,1 - - 0,0
31.05.2020 03:00:00 7,4 6,8 - - 0,0
31.05.2020 02:00:00 6,2 5,2 - - 0,0
31.05.2020 01:00:00 6,9 5,2 - - 0,0
31.05.2020 00:00:00 8,6 5,3 - - 0,0
30.05.2020 23:00:00 10,9 6,1 - - 0,0
30.05.2020 22:00:00 12,7 6,7 - - 0,0
30.05.2020 21:00:00 15,3 6,2 - - 0,0
30.05.2020 20:00:00 18,4 4,8 - - 0,0
30.05.2020 19:00:00 20,6 4,6 - - 0,0
30.05.2020 18:00:00 21,5 4,2 - - 0,0
30.05.2020 17:00:00 22,4 5,1 - - 0,0
30.05.2020 16:00:00 22,8 4,2 - - 0,0
30.05.2020 15:00:00 23,7 5,4 - - 0,0
30.05.2020 14:00:00 23,4 6,9 - - 0,0
30.05.2020 13:00:00 23,6 6,8 - - 0,0
30.05.2020 12:00:00 22,7 5,9 - - 0,0
30.05.2020 11:00:00 21,4 8,1 - - 0,0
30.05.2020 10:00:00 19,6 10,8 15,2 13,7 0,0
30.05.2020 09:00:00 16,9 10,9 - - 0,0
30.05.2020 08:00:00 13,6 11,9 - - 0,0
30.05.2020 07:00:00 9,9 9,8 - - 0,0
30.05.2020 06:00:00 6,6 6,4 - - 0,0
30.05.2020 05:00:00 4,2 3,8 - - 0,0
30.05.2020 04:00:00 4,2 3,8 - - 0,0
30.05.2020 03:00:00 4,3 3,8 - - 0,0
30.05.2020 02:00:00 4,4 3,7 - - 0,0
30.05.2020 01:00:00 4,7 3,5 - - 0,0
30.05.2020 00:00:00 5,7 3,8 - - 0,0
29.05.2020 23:00:00 6,6 3,2 - - 0,0
29.05.2020 22:00:00 9,3 3,0 - - 0,0
29.05.2020 21:00:00 13,2 3,2 - - 0,0
29.05.2020 20:00:00 16,0 1,4 - - 0,0
29.05.2020 19:00:00 17,8 1,8 - - 0,0
29.05.2020 18:00:00 19,5 1,2 - - 0,0
29.05.2020 17:00:00 20,7 1,1 - - 0,0
29.05.2020 16:00:00 21,2 4,2 - - 0,0
29.05.2020 15:00:00 21,1 2,0 - - 0,0
29.05.2020 14:00:00 22,0 2,5 - - 0,0
29.05.2020 13:00:00 20,9 1,5 - - 0,0
29.05.2020 12:00:00 20,3 2,9 - - 0,0
29.05.2020 11:00:00 19,4 2,7 - - 0,0
29.05.2020 10:00:00 17,9 3,6 15,2 13,7 0,0
29.05.2020 09:00:00 16,2 3,4 - - 0,0
29.05.2020 08:00:00 13,9 9,0 - - 0,0
29.05.2020 07:00:00 8,2 8,1 - - 0,0
29.05.2020 06:00:00 3,7 3,4 - - 0,0
29.05.2020 05:00:00 3,1 2,5 - - 0,0
29.05.2020 04:00:00 3,5 2,8 - - 0,0
29.05.2020 03:00:00 4,4 3,5 - - 0,0
29.05.2020 02:00:00 5,3 4,2 - - 0,0
29.05.2020 01:00:00 6,2 4,5 - - 0,0
29.05.2020 00:00:00 6,9 4,5 - - 0,0
28.05.2020 23:00:00 8,7 4,7 - - 0,0
28.05.2020 22:00:00 11,0 4,3 - - 0,0
28.05.2020 21:00:00 14,6 4,3 - - 0,0
28.05.2020 20:00:00 16,5 4,2 - - 0,0
28.05.2020 19:00:00 18,1 4,4 - - 0,0
28.05.2020 18:00:00 20,0 3,9 - - 0,0
28.05.2020 17:00:00 20,4 4,6 - - 0,0
28.05.2020 16:00:00 20,7 4,2 - - 0,0
28.05.2020 15:00:00 20,8 4,3 - - 0,0
28.05.2020 14:00:00 21,5 4,6 - - 0,0
28.05.2020 13:00:00 20,3 4,1 - - 0,0
28.05.2020 12:00:00 19,0 5,4 - - 0,0
28.05.2020 11:00:00 18,4 6,7 - - 0,0
28.05.2020 10:00:00 17,1 7,3 15,2 13,5 0,0
28.05.2020 09:00:00 15,8 8,3 - - 0,0
28.05.2020 08:00:00 13,2 12,0 - - 0,0
28.05.2020 07:00:00 6,4 6,2 - - 0,0
28.05.2020 06:00:00 4,5 4,1 - - 0,0
28.05.2020 05:00:00 4,2 3,7 - - 0,0
28.05.2020 04:00:00 5,3 4,5 - - 0,0
28.05.2020 03:00:00 6,9 5,7 - - 0,0
28.05.2020 02:00:00 9,2 8,5 - - 0,0
28.05.2020 01:00:00 7,9 7,2 - - 0,0
28.05.2020 00:00:00 8,7 7,1 - - 0,0
27.05.2020 23:00:00 10,8 8,3 - - 0,0
27.05.2020 22:00:00 12,9 9,6 - - 0,0
27.05.2020 21:00:00 14,5 9,6 - - 0,0

tt = temperature
td = dewpoint
tt -20cm = temperature -20cm
tt -100cm = temperature -100cm
rr = precipitation

Next stations